Skip Page Navigation
NASA JPL Caltech
NASA Logo - Jet Propulsion Laboratory + View the NASA Portal
+ Near-Earth Object (NEO) Program
Search JPL
JPL Home Earth Solar System Stars & Galaxies Technology
JPL Solar System Dynamics
BODIES ORBITS EPHEMERIDES TOOLS PHYSICAL DATA DISCOVERY FAQ SITE MAP
JPL Small-Body Database Browser
Search: [ help ]  
39427 Charlottebronte (3360 T-2)
Classification: Outer Main-belt Asteroid          SPK-ID: 2039427
Ephemeris | Orbit Diagram | Orbital Elements | Physical Parameters | Discovery Circumstances | Close-Approach Data ]

[ show orbit diagram ]
Orbital Elements at Epoch 2457000.5 (2014-Dec-09.0) TDB
Reference: JPL 9 (heliocentric ecliptic J2000)
 Element Value Uncertainty (1-sigma)   Units 
e .1875922760047836 6.247e-08  
a 3.974888414404354 8.0523e-08 AU
q 3.229230049881196 2.5143e-07 AU
i 3.874607469606182 8.7429e-06 deg
node 68.56687165459068 0.00010905 deg
peri 243.0276204970834 0.00011217 deg
M 105.3349009185433 2.5406e-05 deg
tp 2456153.554179433275
(2012-Aug-14.05417943)
0.00020585 JED
period 2894.581878800116
7.92
8.7957e-05
2.408e-07
d
yr
n .1243702942510059 3.7792e-09 deg/d
Q 4.720546778927513 9.5629e-08 AU
  Orbit Determination Parameters
   # obs. used (total)      761  
   data-arc span      14753 days (40.39 yr)  
   first obs. used      1973-09-19  
   last obs. used      2014-02-09  
   planetary ephem.      DE431  
   SB-pert. ephem.      SB431-BIG16  
   condition code      0  
   fit RMS      .54406  
   data source      ORB  
   producer      Otto Matic  
   solution date      2014-Jun-10 04:57:55  

Additional Information
 Earth MOID = 2.21857 AU 
 T_jup = 3.022 
[ show covariance matrix ]

Ephemeris | Orbit Diagram | Orbital Elements | Physical Parameters | Discovery Circumstances | Close-Approach Data ]

Physical Parameter Table
Parameter Symbol Value Units Sigma Reference Notes
absolute magnitude H 12.5 mag n/a MPO267838  

39427 Charlottebrontë           Discovered 1973 Sept. 25 by C. J. van Houten and I. van Houten-Groeneveld on Palomar Schmidt plates taken by T. Gehrels.
Charlotte Brontë (1816-1855) was a renowned English novelist and poet, best known for her remarkable work Jane Eyre.
NOTE: some special characters may not display properly (any characters within {} are an attempt to place the proper accent above a character)
Reference: 20060219/MPCPages.arcLast Updated: 2010-06-03

[ show close-approach data ]
Alternate Designations
 3360 T-2 = 1997 TF28 = 1998 XV8 = 2001 DF32 
Ephemeris | Orbit Diagram | Orbital Elements | Physical Parameters | Discovery Circumstances | Close-Approach Data ]
ABOUT SSD CREDITS/AWARDS PRIVACY/COPYRIGHT GLOSSARY LINKS
FirstGov 2014-Sep-02 14:06 UT
(server date/time)  
NASA Home Page
Site Manager:   Donald K. Yeomans
Webmaster  Alan B. Chamberlin